Terminal Aerodrome Forecast
Issued by NWS Sterling, VA

Current Version | Previous Version | Graphics & Text | Print | Product List | Glossary On
Versions: 1 2 3 4 5 6 7 8 9 10 11 12 13 14 15 16 17 18 19 20 21 22 23 24 25
000
FTUS41 KLWX 221100
TAFMRB
TAF
KMRB 221137Z 2212/2312 35013KT P6SM SCT015 OVC025
     FM221600 35015G23KT P6SM OVC025
     FM222200 34017G26KT P6SM BKN035
     FM230300 33018G27KT P6SM SCT080
     FM230900 31015G23KT P6SM BKN025=

USA.gov is the U.S. government's official web portal to all federal, state and local government web resources and services.